Location: C.E.K. Mees Observatory
(42.7003°N, 77.4088°W)
Time: 09:00:03
(UTC-05:00)

Envisat - Pass Details

Date: 09 October 2017
Orbit: 764 x 766 km, 98.2° (Epoch: 17 December)

Event Time Altitude Azimuth Distance (km) Brightness Sun altitude
Exits shadow 21:44:42 33° 272° (W) 1,272 4.5 -34.5°
Drops below altitude 10° 21:48:57 10° 328° (NNW) 2,311 6.1 -35.2°
Sets 21:51:29 0° 338° (NNW) 3,242 6.9 -35.7°
